Location: Izdebno
(52.6670°N, 16.2170°E)
Time: 10:46:13
(UTC+01:00)

Transit 2A - Pass Details

Date: 06 February 2023
Orbit: 591 x 964 km, 66.7° (Epoch: 21 March)

Event Time Altitude Azimuth Distance (km) Brightness Sun altitude
Rises 20:52:49 0° 301° (WNW) 3,292 10.3 -36.5°
Reaches altitude 10° 20:55:48 10° 318° (NW) 2,433 9.2 -36.9°
Enters shadow 20:58:49 19° 350° (N) 1,918 8.3 -37.3°
Maximum altitude 20:59:58 21° 6° (N) 1,885 - -37.5°
Drops below altitude 10° 21:04:24 10° 53° (NE) 2,602 - -38.1°
Sets 21:07:43 0° 69° (ENE) 3,593 - -38.5°
